OPS 4682 DEB, 18967

Orbit data source: Space-Track

OPS 4682 DEB, 18967 is space debris in LEO originally from a launch on Sat, 03 Apr 1965 UTC launched from the Air Force Western Test Range (AFWTR). Debris objects in space refer to the collection of defunct objects orbiting the Earth. Examples of debris include non-operational satellites, rocket bodies, and fragments generated from explosions, collisions, or faulty payload assembly.

Loading next visibility...
Identifier
18967, 1965-027AP
Orbit
LEO
Last TLE update
11 hours ago
Origin
Manufacturer
Unknown
Mission
Spacecraft
Bus & Motor
Unknown
Mass
Unknown
Launch date (UTC)
1965-04-03 (60 years ago)
Launch vehicle
Unknown
Launch site
Air Force Western Test Range (AFWTR)
Object type
Payload
Rocket body
Debris
Shape & HBR
Unknown
Radar Cross Section
Small (<0.1 m²)

Expand to show TLE details & history

TLE from 11 hours ago
0 OPS 4682 DEB
1 18967U 65027AP  25169.82816888  .00000433  00000-0  14964-2 0  9999
2 18967  90.2397   2.2605 0028763  25.3413 352.8973 12.95898086771257
Epoch: 2025-06-18T19:52Z
TLE epoch observation values (Epoch: 2025-06-18T19:52:33.791Z)
Latitude
18.18919°
Longitude
156.73673°
Altitude
1,258.692 km
Speed
7.238 km/s
True Right ascension
00h 08m 43s
True Declination
18° 05' 39"
Sunlit
Object was in daylight at epoch
Visualization orbit readout
Latitude
21.62457°
Longitude
156.73074°
Altitude
1,258.828 km
Speed
7.238 km/s
Apparent Right ascension
02h 21m 21s
Apparent Declination
-8° 06' 08"
Sunlit
Object is in daylight
Visualization observer readout
Local Sidereal Time
17:51:16
Azimuth
70.451° E
Elevation
-33.567°
Doppler factor
1
Orbital elements
Apogee altitude
1,297.347 km
Perigee altitude
1,253.32 km
Semi-major axis
7,653.471 km
Eccentricity
0.00288
Inclination
90.2397°
RAAN
2.2605°
Arg. of periapsis
25.3413°
True anomaly
Unknown
Mean anomaly
352.8973°
Eccentric anomaly
Unknown
Mean motion
3.24157 °/min
Orbital period
111.06 mins
BSTAR
0.0014964
Loading maneuver chart data...
Loading SW <> Apogee altitude chart data...
Loading historical data...
Loading historical data...
Loading historical data...
Loading historical data...
Loading historical data...
Loading historical data...
Loading historical data...

OPS 4682 DEB Visibility forecast

Observer location: undefined°, undefined°

Span
Click to sort rows by Start time (UTC) header in descending order
Start Az.
Max El. time (UTC)
Max El. Az.
Max El.
End time (UTC)
End Az.
13 mins2025-06-19 12:33:42.315Z151.874° SSE2025-06-19 12:39:42.315Z91.373° ESE38.058°2025-06-19 12:46:42.315Z8.816° NNE
10 mins2025-06-19 14:26:42.315Z231.106° WSW2025-06-19 14:31:42.315Z284.616° WNW25.403°2025-06-19 14:36:42.315Z331.616° NNW
12 mins2025-06-20 00:12:42.315Z27.093° NE2025-06-20 00:17:42.315Z83.05° E31.258°2025-06-20 00:24:42.315Z149.701° SSE
12 mins2025-06-20 02:02:42.315Z344.608° N2025-06-20 02:08:42.315Z280.088° WNW33.417°2025-06-20 02:14:42.315Z218.701° SW
|